Home   Weather   Samsun   Past weeks

Flag for Turkey Past Weather in Samsun, Turkey — Yesterday and Last 2 Weeks

Now
57 °F

Partly cloudy.


Feels Like: 57 °F
Forecast: 48 / 68 °F
Wind: No wind

Location: Samsun / Carsamba

Current Time: May 26, 2017 at 4:40:30 am

Latest Report: May 26, 2017 at 3:50 am


Visibility: N/A

Pressure: 29.98 "Hg

Humidity: 88%

Dew Point: 54 °F

Location of SamsunLocation

Past Weather in Samsun — Graph

°F

Samsun Temperature Yesterday

Maximum temperature yesterday: 70 °F (at 11:50 am)
Minimum temperature yesterday: 46 °F (at 3:50 am)
Average temperature yesterday: 59 °F

High & Low Weather Summary for the Past Weeks

 TemperatureHumidityPressure
High86 °F (May 13, 11:50 am)100% (May 12, 5:50 am)30.18 "Hg (May 12, 5:50 am)
Low41 °F (May 21, 4:50 am)34% (May 13, 5:50 pm)29.71 "Hg (May 21, 1:50 pm)
Average58 °F81%29.98 "Hg
* Reported May 11 2:50 am — May 26 2:50 am, Samsun. Weather by CustomWeather, © 2017

Note: Actual official high and low records may vary slightly from our data, if they occured in-between our weather recording intervals... More about our weather records

Advertising

Samsun Weather History for the Previous 24 Hours

Scroll right to see more
 ConditionsComfort  
Time TempWeatherWind HumidityBarometerVisibility
2:50 am
Fri, May 26
57 °FPassing clouds.No wind88%29.95 "HgN/A
1:50 am57 °FPassing clouds.No wind88%29.98 "HgN/A
12:50 am57 °FPassing clouds.No wind88%29.98 "HgN/A
11:50 pm
Thu, May 25
57 °FPassing clouds.2 mph88%30.01 "HgN/A
10:50 pm57 °FPassing clouds.2 mph88%30.01 "HgN/A
9:50 pm57 °FPassing clouds.2 mph88%30.01 "HgN/A
8:50 pm57 °FPassing clouds.3 mph88%30.01 "HgN/A
7:50 pm59 °FPassing clouds.6 mph77%30.01 "HgN/A
6:50 pm63 °FPassing clouds.7 mph73%30.01 "HgN/A
5:50 pm64 °FPassing clouds.8 mph64%30.01 "HgN/A
4:50 pm68 °FPassing clouds.7 mph60%30.01 "HgN/A
3:50 pm68 °FPassing clouds.9 mph60%30.01 "HgN/A
2:50 pm70 °FPassing clouds.9 mph57%29.98 "HgN/A
1:50 pm70 °FPassing clouds.10 mph57%30.01 "HgN/A
12:50 pm70 °FPassing clouds.8 mph60%30.01 "HgN/A
11:50 am70 °FSunny.5 mph60%30.01 "Hg10 mi
10:50 am66 °FPassing clouds.6 mph60%30.01 "HgN/A
9:50 am64 °FSunny.3 mph68%30.01 "Hg10 mi
8:50 am63 °FPassing clouds.3 mph68%30.01 "HgN/A
7:50 am57 °FSunny.2 mph82%30.01 "Hg10 mi
6:50 am52 °FScattered clouds.2 mph94%30.01 "HgN/A
5:50 am46 °FPartly sunny.2 mph93%30.04 "HgN/A
4:50 am46 °FPassing clouds.No wind100%30.04 "HgN/A
Weather by CustomWeather, © 2017

See weather overviewHow to use our weather pages